User: anonymous   Login
Location: Unspecified
(0.0000°N, 0.0000°E)
Time: 01:09:36
(UTC+00:00)
Language:

TBA - TO BE ASSIGNED - Orbit

View from above orbital plane
View from above orbital plane
View from above satellite
View from above satellite

Ground track
Ground track

The orbit is defined by the following mean orbital elements,

1 67885U          26145.53993100 +.00000000 +00000-0 +64237-3 0 00000
2 67885  97.2852  79.0298 0001980  92.9045 267.2424 15.33448070    03
Epoch (UTC): 25 May 2026 12:57:30
Eccentricity: 0.0001980
inclination: 97.2852°
perigee height: 464 km
apogee height: 467 km
right ascension of ascending node: 79.0298°
argument of perigee: 92.9045°
revolutions per day: 15.33448070
mean anomaly at epoch: 267.2424°

The dashed part of the orbit path shows where the satellite is in the earth's shadow,  

DLR